Overview Statistics Trail Chart Weather Telemetry Raw packets
 

This is the latest recevied weather packets stored in our database for station/object YO6LRV-6. If no packets are shown the sender has not sent any weather packets the latest 10 day(s).

<< 2 3 4 5 6 >>
Time Temp. Humidity Pressure Rain* Wind** Luminosity Snow
1777718791 19.44° C 27% 1061.8 hPa - - - -
1777717891 18.33° C 28% 1062.1 hPa - - - -
1777716991 16.67° C 31% 1062.1 hPa - - - -
1777713391 22.22° C 27% 1062.5 hPa - - - -
1777707990 11.67° C 47% 1063.2 hPa - - - -
1777707090 11.11° C 44% 1063.2 hPa - - - -
1777706182 11.67° C 46% 1063.2 hPa - - - -
1777705289 10° C 52% 1063 hPa - - - -
1777704389 10° C 50% 1063.1 hPa - - - -
1777703489 10° C 51% 1063.1 hPa - - - -
1777700791 8.33° C 57% 1063.3 hPa - - - -
1777698991 6.67° C 63% 1063.2 hPa - - - -
1777698091 6.67° C 62% 1063.2 hPa - - - -
1777697184 6.11° C 65% 1063.3 hPa - - - -
1777696283 5.56° C 67% 1063.1 hPa - - - -
1777695383 5° C 69% 1063.1 hPa - - - -
1777694483 5° C 70% 1063.1 hPa - - - -
1777693583 4.44° C 70% 1062.9 hPa - - - -
1777691783 4.44° C 72% 1062.8 hPa - - - -
1777690890 4.44° C 72% 1062.7 hPa - - - -
1777689983 4.44° C 71% 1062.8 hPa - - - -
1777689082 4.44° C 72% 1062.8 hPa - - - -
1777688182 4.44° C 71% 1062.7 hPa - - - -
1777687282 4.44° C 70% 1062.7 hPa - - - -
1777686382 4.44° C 70% 1062.7 hPa - - - -

* Rain since midnight (hover to see other rain measurements)
** Current wind speed in m/s (hover to see current wind gust speed)